Probability
0 0 0 0 0 0 0 0 0 0 0 0 0 0 0 0 0 1 2 2 5 6 6 6 6 4 3 1 0 0 0 0 0 0 0 0 0 0 0 0 0 0 0 0
0 0 0 0 0 0 0 0 0 0 0 0 0 0 0 0 0 1 1 2 4 6 6 6 5 4 3 1 0 0 0 0 0 0 0 0 0 0 0 0 0 0 0 0
0 0 0 0 0 0 0 0 0 0 0 0 0 0 0 0 0 1 1 2 4 5 6 5 5 4 2 1 0 0 0 0 0 0 0 0 0 0 0 1 1 1 1 0
0 0 0 0 0 0 0 0 0 0 0 0 0 0 0 0 0 1 1 2 3 4 5 5 6 6 4 1 0 0 0 0 0 0 0 0 0 0 1 2 3 3 2 1
0 0 0 0 0 0 0 0 0 0 1 1 0 0 1 1 1 2 3 4 4 4 4 5 6 7 7 4 1 0 0 0 0 0 0 0 0 0 1 2 3 3 3 1
0 0 0 0 0 0 1 2 1 1 2 2 1 1 3 3 3 4 5 6 5 4 4 5 7 8 8 5 2 0 0 0 0 0 0 0 0 0 0 1 1 2 2 1
0 0 0 0 0 1 2 3 3 2 2 2 3 4 5 6 5 6 6 7 6 6 5 5 6 7 8 6 3 1 0 0 0 0 0 0 0 0 0 0 0 0 0 0
0 0 0 0 0 1 3 3 3 2 1 2 4 5 6 7 8 7 7 7 7 7 7 5 5 6 6 4 2 1 1 1 1 1 1 0 0 0 0 0 0 0 0 0
0 0 0 0 1 2 3 3 2 1 1 2 4 4 5 7 8 7 7 7 8 8 8 7 5 6 5 4 3 3 3 3 2 2 2 1 1 0 0 0 1 0 0 0
1 2 1 1 1 1 1 1 1 0 1 3 3 3 3 5 6 7 7 7 8 9 9 8 7 6 6 5 5 5 5 4 3 3 3 3 2 1 1 1 1 0 0 1
3 3 3 2 1 0 0 0 0 1 2 3 3 3 3 3 3 5 7 7 8 9 9 8 8 8 8 7 7 7 5 4 3 3 3 3 3 3 3 2 1 0 0 1
3 3 3 3 2 0 0 0 1 2 3 3 3 2 1 1 1 2 4 5 6 6 6 7 8 9 9 9 9 7 5 3 3 3 3 3 3 3 2 1 0 0 0 1
2 2 3 2 1 0 0 0 1 2 2 2 1 1 0 0 0 0 1 2 2 3 3 5 6 7 8 8 8 7 4 3 3 3 3 3 3 3 2 1 0 0 0 0
1 1 1 1 0 0 0 0 0 1 1 1 0 0 0 0 0 0 0 0 0 1 1 3 4 4 4 5 5 4 3 2 3 3 3 3 3 3 3 2 0 0 0 0
0 0 0 0 0 0 0 0 0 0 0 0 0 0 0 0 0 0 0 0 0 0 0 1 2 2 1 1 2 1 1 1 1 2 3 3 3 3 2 1 0 0 0 0
0 0 0 1 0 0 0 0 0 0 0 0 0 0 0 0 0 0 0 1 0 0 0 0 1 2 1 0 0 0 0 0 1 1 2 2 2 1 1 0 0 0 0 0
0 0 0 0 0 0 0 0 0 0 0 0 0 0 0 0 0 0 0 0 0 0 0 0 0 1 1 0 0 0 0 0 0 0 0 1 1 0 0 0 0 0 0 0
0 0 0 0 0 0 0 0 0 0 0 0 0 0 0 0 0 0 0 0 0 0 0 0 0 0 1 1 0 0 0 0 0 0 0 0 0 0 0 0 0 0 0 0
0 0 0 0 0 0 0 0 0 0 0 0 0 0 0 0 0 0 0 0 0 0 0 0 0 0 1 2 1 0 0 0 0 0 0 0 0 0 0 0 0 0 0 0
0 0 0 0 0 0 0 0 0 0 0 0 0 0 0 0 0 0 0 0 0 0 0 0 0 0 1 1 1 0 0 0 0 0 0 0 0 0 0 0 0 0 0 0
0 0 0 0 0 0 0 0 0 0 0 0 0 0 0 0 0 0 0 0 0 0 0 0 0 0 0 0 0 0 0 0 0 0 0 0 0 0 0 0 0 0 0 0
1 0 0 0 0 0 0 0 0 0 0 0 0 0 0 0 1 0 0 0 0 0 0 0 0 0 0 0 0 0 0 0 0 0 0 0 0 0 0 0 0 0 0 0
1 0 0 0 1 1 0 0 0 0 0 0 0 0 0 0 0 0 0 0 0 0 0 0 0 0 0 0 0 0 0 0 0 0 0 0 0 0 0 0 0 0 0 0
1 0 0 1 2 1 0 0 0 0 0 0 0 0 0 0 0 0 0 0 0 0 0 0 0 0 0 0 0 0 0 0 0 0 0 0 0 0 0 0 0 0 0 0
0 1 1 1 2 2 1 0 0 0 0 0 0 0 0 0 0 0 0 0 0 0 0 0 0 0 0 0 0 0 0 0 0 0 0 0 0 0 0 0 0 0 0 0
1 1 2 1 1 1 1 0 0 0 0 0 0 0 0 0 0 0 0 0 0 0 0 0 0 0 0 0 0 0 0 0 0 0 0 0 0 0 0 0 0 0 0 0
0 1 2 2 1 1 0 0 0 0 0 0 0 0 0 0 0 0 0 0 1 1 1 0 0 0 0 0 0 0 0 0 0 0 0 0 0 0 0 0 0 0 0 0
Wind_Speed
3 2 3 3 3 3 4 6 6 5 5 3 2 0 1 2 2 2 1 1 1 2 1 1 1 1 1 1 1 0 0 1 1 1 2 2 1 1 1 2 2 2 1 1
5 4 4 4 3 4 4 5 5 5 3 2 1 1 2 2 2 2 1 1 1 2 2 2 2 2 2 2 1 1 1 1 1 1 1 1 1 1 1 1 1 1 1 1
5 4 7 5 3 5 3 3 4 4 3 1 1 1 2 2 2 2 2 2 2 2 2 2 2 2 2 2 2 2 2 2 2 2 1 1 2 2 1 1 1 1 1 1
5 5 6 1 1 3 3 2 3 4 3 2 2 1 2 2 1 1 1 1 2 1 2 3 3 3 3 3 3 2 2 2 2 2 2 2 1 1 1 1 1 1 1 1
5 6 4 3 1 3 5 2 2 4 3 2 1 2 2 1 1 1 1 1 2 2 2 4 4 4 3 3 3 3 2 2 2 2 2 1 1 1 1 1 1 1 1 1
6 6 4 2 3 4 6 3 3 3 3 2 2 3 1 1 1 1 1 1 2 2 3 4 4 4 4 3 3 3 3 2 2 2 2 2 1 1 1 1 1 2 1 1
6 6 1 3 3 3 4 3 4 3 3 2 3 3 2 1 1 1 2 2 2 2 2 3 4 4 4 4 3 3 2 2 2 2 2 2 2 2 2 2 1 1 1 2
5 6 1 4 1 2 5 4 3 3 2 2 2 1 1 1 1 2 2 2 2 2 2 2 3 4 4 4 3 3 2 2 2 2 1 1 2 2 2 2 2 2 2 2
3 2 4 3 2 3 3 3 3 3 3 2 1 0 0 1 1 1 2 2 2 2 2 2 3 4 4 3 3 3 3 3 2 2 1 2 2 2 3 3 3 2 2 2
3 2 0 0 1 2 2 2 2 2 2 1 1 1 0 0 0 1 2 2 3 3 3 3 3 4 4 3 3 4 3 3 3 2 2 2 2 2 2 3 3 3 3 2
5 2 2 1 1 2 2 2 2 2 2 1 1 1 1 1 1 1 1 2 2 3 3 3 3 3 4 4 4 4 4 3 3 3 2 2 2 2 3 3 3 4 4 4
3 1 3 2 2 3 3 3 3 2 1 2 1 1 1 1 1 1 2 2 2 3 3 2 3 3 4 4 4 4 4 4 3 3 2 2 2 2 0 2 0 1 3 4
3 3 3 2 3 3 3 3 3 2 2 1 1 1 2 1 1 1 2 2 2 3 3 3 3 3 3 4 4 4 4 3 2 2 2 2 2 2 2 2 3 4 4 4
2 2 2 2 2 2 3 3 2 2 1 1 1 1 1 1 1 2 2 2 2 3 3 3 3 3 3 4 4 4 4 3 3 3 3 3 3 3 3 3 2 2 4 6
2 2 2 2 3 2 2 2 2 1 1 1 1 1 1 2 2 2 2 1 2 3 3 3 3 3 3 4 5 4 4 3 3 3 3 3 4 4 3 3 3 3 2 3
3 2 2 3 3 3 2 2 3 3 3 3 2 2 2 2 2 2 2 2 3 4 3 4 4 3 3 4 5 5 4 3 4 4 4 4 4 4 3 3 3 3 3 2
3 3 3 3 3 4 4 4 4 4 3 3 3 3 3 3 3 3 3 4 4 4 4 4 4 4 4 5 6 5 5 5 6 5 4 4 3 3 3 3 3 3 3 2
4 4 4 4 4 4 4 4 4 4 3 3 3 3 4 5 5 4 4 4 4 5 4 4 4 4 5 5 5 5 4 4 5 4 4 3 3 3 3 3 4 4 3 1
3 4 4 4 4 4 4 4 4 3 3 4 4 4 5 5 5 5 4 4 5 5 4 4 3 5 5 5 5 5 5 5 4 4 4 4 4 4 4 4 4 4 3 3
2 3 3 4 4 4 4 3 3 3 3 3 4 4 4 4 5 5 5 5 5 3 3 3 4 5 5 5 6 6 6 5 5 4 4 4 4 4 4 4 4 4 4 4
3 3 4 4 4 4 3 3 2 3 3 3 4 4 4 4 5 5 5 5 4 3 3 4 5 5 5 4 6 6 6 5 5 4 4 4 4 4 4 4 4 4 4 4
3 4 4 4 3 3 3 3 3 3 3 4 4 4 4 4 4 5 5 4 3 3 4 4 5 3 2 5 6 6 6 6 5 4 4 4 4 4 4 4 4 4 4 4
4 4 4 4 3 3 3 3 3 3 4 4 4 4 4 4 4 4 4 3 3 3 4 4 1 2 4 7 6 6 6 6 5 5 5 4 4 4 4 5 4 4 4 4
4 4 4 4 4 4 4 4 3 3 4 4 4 4 4 4 4 4 3 2 3 4 5 2 3 5 7 7 7 6 6 6 5 5 5 4 4 4 4 4 4 4 4 5
5 5 5 5 5 4 4 4 5 4 4 3 4 4 4 4 4 3 3 3 2 4 5 5 7 8 8 7 6 6 5 5 4 4 4 5 5 4 4 4 4 4 4 4
5 5 5 5 5 5 4 4 4 4 4 4 3 3 4 4 4 4 3 4 4 5 5 4 5 7 7 6 6 5 5 4 5 6 5 5 5 5 4 4 5 4 4 4
6 5 4 4 4 4 4 4 5 4 4 4 4 4 4 4 4 4 5 4 4 4 4 4 4 5 5 5 4 5 4 4 5 5 4 4 4 4 4 5 4 4 4 4
Wind_Direction
269 267 261 263 276 269 274 289 295 303 302 325 343 279 200 193 192 206 197 186 222 225 205 188 186 192 191 169 156 152 174 163 141 144 154 163 163 152 156 161 159 159 162 162
241 232 240 252 274 269 272 282 281 286 300 5 352 209 187 199 202 218 231 211 211 215 202 195 192 200 184 175 170 172 183 175 175 177 166 167 163 154 139 148 171 175 167 186
251 236 241 243 286 286 276 293 302 310 327 331 279 256 218 201 212 227 240 229 208 203 202 200 190 180 182 175 168 170 177 183 175 181 174 164 161 154 152 160 172 184 195 211
262 241 241 84 22 301 282 286 303 310 322 301 293 269 204 187 211 241 246 215 198 212 202 191 174 170 174 165 165 168 174 176 174 179 171 158 158 163 168 181 203 218 233 222
255 249 229 168 27 308 281 256 341 320 317 312 334 234 185 174 225 237 220 206 194 204 187 175 172 168 168 174 177 178 182 185 182 188 182 184 186 184 185 196 207 219 217 231
253 260 255 61 359 302 260 213 21 331 301 273 239 253 107 109 218 203 182 171 172 183 168 165 169 166 169 175 178 184 191 196 188 195 200 209 209 210 196 207 228 242 239 253
252 250 222 32 350 267 250 13 359 322 303 270 261 323 43 110 148 149 157 162 171 172 159 167 167 171 174 177 183 189 190 184 177 178 187 203 207 213 211 218 233 261 274 257
249 249 191 39 9 340 0 0 347 336 335 314 318 24 79 121 147 159 161 166 172 170 161 159 168 175 176 182 186 180 177 174 169 173 197 177 195 213 219 230 228 236 240 253
294 345 51 31 20 12 351 338 347 341 339 322 305 311 48 90 150 176 184 178 181 185 173 167 183 187 185 181 179 175 173 169 166 171 186 201 210 220 230 235 252 261 263 273
246 204 164 73 33 6 356 354 351 344 338 317 298 301 313 172 198 204 194 186 189 194 184 180 189 193 189 179 177 179 176 180 185 190 204 205 232 246 262 268 270 275 286 297
239 248 242 200 353 342 341 331 335 347 337 317 292 286 263 223 219 234 212 200 198 197 197 193 185 186 185 178 179 183 183 192 204 207 206 221 241 293 288 300 316 301 308 311
288 327 287 306 337 332 316 310 309 299 290 300 277 274 259 246 228 234 222 205 194 196 205 199 189 181 181 184 187 194 200 205 213 218 218 226 222 221 207 264 278 258 283 296
292 302 309 307 305 310 308 309 303 287 275 279 288 279 255 239 232 236 227 209 196 197 202 200 192 183 185 190 193 201 215 221 228 235 232 235 247 261 262 222 220 235 241 247
241 248 251 276 303 312 307 309 303 294 292 277 276 259 234 218 222 234 239 223 201 202 203 201 196 189 189 187 192 205 215 208 227 235 245 252 256 263 266 274 269 248 213 217
233 243 260 285 300 311 307 304 288 280 283 284 266 242 229 232 238 249 256 237 209 213 209 209 209 202 197 192 195 209 225 227 225 237 238 244 250 255 260 264 277 285 272 194
244 241 254 268 283 296 296 284 280 281 275 268 257 248 244 244 240 245 250 233 216 220 221 223 226 224 217 203 200 203 213 234 252 247 240 239 244 249 253 257 264 273 278 280
250 252 257 266 269 274 278 282 280 274 267 264 263 251 239 234 232 233 243 243 239 234 234 235 234 232 232 217 219 222 216 194 202 231 243 248 254 259 261 264 269 274 280 325
250 255 262 268 269 270 274 278 278 275 268 261 254 246 237 235 237 235 238 237 241 240 236 234 235 238 238 228 225 236 231 224 214 223 234 244 254 261 264 263 264 271 279 224
247 246 252 257 262 266 269 273 276 277 275 269 262 254 246 244 242 237 234 231 237 239 236 234 233 236 235 230 228 224 232 233 232 232 236 232 239 250 256 258 265 270 276 284
256 259 265 260 260 267 273 275 276 279 277 270 265 258 253 248 242 235 232 233 242 254 245 242 232 231 231 222 235 233 230 230 231 230 232 241 247 253 257 260 265 274 282 287
284 289 290 285 277 273 271 270 269 277 279 271 265 263 260 255 249 240 236 232 224 232 237 224 234 234 231 228 226 238 235 233 232 232 236 241 248 256 263 266 264 265 269 276
302 296 292 290 286 281 274 269 269 273 270 269 270 273 269 258 253 246 244 251 232 204 234 232 235 236 244 249 237 237 237 236 236 237 240 243 247 251 256 262 264 263 262 263
302 298 295 293 289 285 279 273 274 271 266 267 269 271 272 271 262 255 247 234 234 215 243 249 238 184 223 241 244 242 241 239 242 245 245 242 244 248 250 250 252 255 261 264
303 297 294 291 283 277 279 281 279 272 266 266 267 269 267 260 255 259 270 228 219 222 245 225 195 206 227 241 241 241 239 239 243 247 248 246 244 247 249 249 250 250 251 258
302 298 293 285 279 277 278 274 269 263 259 263 265 258 258 261 264 265 271 265 236 233 239 209 197 207 229 241 239 240 241 248 256 261 255 254 252 247 247 251 254 258 261 260
295 288 290 286 286 284 279 277 276 269 264 269 272 262 263 266 263 255 251 249 248 246 250 230 208 210 229 238 240 242 242 233 234 242 247 250 253 255 255 255 253 253 256 257
283 278 274 276 278 280 283 281 278 275 270 270 275 274 267 265 259 257 257 254 249 248 247 240 232 229 234 239 243 243 242 241 242 246 248 247 249 249 249 253 257 256 256 254